DELTA 1 DEB

Satellite information

Favourite Embed

Satellite Type and Status

DEBRISIN ORBIT

Key statistics

Satellite DELTA 1 DEB at a glance.

Uptime

17353

Days in orbit

Revolutions

≈ 13.3

Per day

Orbit

SSO

Sun Synchronous Orbit

Inclination

98.9

Latest

Satellite identification and parameters

Extended collection of information and parameters for DELTA 1 DEB.

Object identification

Identified? True

Debris? True

Object name: DELTA 1 DEB

International designator: 1978-026DG

Object number (NORAD): 12263

Object ID (CCSDS): 12263

Country: UNITED STATES OF AMERICA (US)

Current information (Y/N): Y

RCS size: SMALL

Orbital parameters

Period: 108.036 minutes

Inclination: 98.9221 deg

SMA: 7514.021 km

Apoapsis: 1453.788 km

Periapsis: 817.985 km

RAAN: 34.3211 deg

Eccentricy: 0.04230775

Argument of periapsis: 345.0219 deg

Mean anomaly: 13.8691 deg

Mean motion: 13.32889431 rev/day

Mean motion (dot): 0.00000478 rev/day2

B* drag term: 0.00063920119 1/REarth

Two-line elements (TLE)

Creation date: Sept. 7, 2025, 3:09 a.m.

Reference frame: TEME

Reference center: EARTH

Epoch: Sept. 6, 2025, 9:58 p.m. UTC

TLE line 0: 0 DELTA 1 DEB

TLE line 1: 1 12263U 78026DG 25249.91592694 .00000478 00000-0 63920-3 0 9996

TLE line 2: 2 12263 98.9221 34.3211 0423078 345.0219 13.8691 13.32889431132016

Live tracking on map

Real-time ground track for satellite DELTA 1 DEB.

In-orbit conjunctions

A list of the most updated potential collisions computed for object DELTA 1 DEB.

Target Orbit TCA Probability of collision Miss distance Type
CZ-6A DEB LEO 2025-01-19 00:37:08 0.0003289859 209.0 (m) DEBRIS
CZ-6A DEB SSO 2024-11-11 19:30:50 0.000147396 233.0 (m) DEBRIS

Associated space launch

Earth observation satellite

DELTA 1 DEB was lifted into orbit during the mission ‘Delta 2910 | Landsat 3’, on board a Delta 2910 space rocket.

The launch took place on March 5, 1978, 5:54 p.m. from Space Launch Complex 2W.

For more information about the launch, click the button.

Launch to space Delta 2910 | Landsat 3
Delta 2910 | Landsat 3

Agency: N/A

Status: Launch Successful

Launch date: March 5, 1978, 5:54 p.m. UTC

Rocket: Delta 2910

Launch pad: Space Launch Complex 2W

Location: Vandenberg SFB, CA, USA

...

Latest news about this satellite

There are no fresh news available about this satellite. Check back as we update our databases every day.


Newsletter sign-up

Weekly statistics, charts and insights to help you stay on top of the space industry.